Zurück zum Katalog

DMSP 5D-2 F11 DEB

AktivPO
NORAD 28342·DEBRIS·🇺🇸 United States

Gestartet Nov 28, 1991 von Vandenberg Space Force Base

Loading…

Nächste Überflüge (nächste 24 Stunden)

TLE

AktuellSource: Space-Track

Epoche: Sep 14, 2026, 16:12 UTC

1 28342U 91082BF  26257.67568447  .00003518  00000-0  11095-2 0  9993
2 28342  98.9569 332.9976 0065173 199.6536 160.2138 14.39760107151799

Verfolge DMSP 5D-2 F11 DEB in Echtzeit mit AllMySat

Download on the App Store